QPF
0.00 0.00 0.00 0.00 0.00 0.00 0.00 0.00 0.00 0.00 0.00 0.00 0.00 0.00 0.00 0.00 0.00 0.00 0.00 0.00 0.00 0.00 0.00 0.00 0.00 0.00 0.00 0.00 0.00 0.00 0.00 0.00 0.00 0.00 0.00 0.00 0.00 0.00 0.00 0.00 0.00 0.00 0.00 0.00 0.00
0.00 0.00 0.00 0.00 0.00 0.00 0.00 0.00 0.00 0.00 0.00 0.00 0.00 0.00 0.00 0.00 0.00 0.00 0.00 0.00 0.00 0.00 0.00 0.00 0.00 0.00 0.00 0.00 0.00 0.00 0.00 0.00 0.00 0.00 0.00 0.00 0.00 0.00 0.00 0.00 0.00 0.00 0.00 0.00 0.00
0.00 0.00 0.00 0.00 0.00 0.00 0.00 0.00 0.00 0.00 0.00 0.00 0.00 0.00 0.00 0.00 0.00 0.00 0.00 0.00 0.00 0.00 0.00 0.00 0.00 0.00 0.00 0.00 0.00 0.00 0.00 0.00 0.00 0.00 0.00 0.00 0.00 0.00 0.00 0.00 0.00 0.00 0.00 0.00 0.00
0.00 0.00 0.00 0.00 0.00 0.00 0.00 0.00 0.00 0.00 0.00 0.00 0.00 0.00 0.00 0.00 0.00 0.00 0.00 0.00 0.00 0.00 0.00 0.00 0.00 0.00 0.00 0.00 0.00 0.00 0.00 0.00 0.00 0.00 0.00 0.00 0.00 0.00 0.00 0.00 0.00 0.00 0.00 0.00 0.00
0.00 0.00 0.00 0.00 0.00 0.00 0.00 0.00 0.00 0.00 0.00 0.00 0.00 0.00 0.00 0.00 0.00 0.00 0.00 0.00 0.00 0.00 0.00 0.00 0.00 0.00 0.00 0.00 0.00 0.00 0.00 0.00 0.00 0.00 0.00 0.00 0.00 0.00 0.00 0.00 0.00 0.00 0.00 0.00 0.00
0.00 0.00 0.00 0.00 0.00 0.00 0.00 0.00 0.00 0.00 0.00 0.00 0.00 0.00 0.00 0.00 0.00 0.00 0.00 0.00 0.00 0.00 0.00 0.00 0.00 0.00 0.00 0.00 0.00 0.00 0.00 0.00 0.00 0.00 0.00 0.00 0.00 0.00 0.00 0.00 0.00 0.00 0.00 0.00 0.00
0.00 0.00 0.00 0.00 0.00 0.00 0.00 0.00 0.00 0.00 0.00 0.00 0.00 0.00 0.00 0.00 0.00 0.00 0.00 0.00 0.00 0.00 0.00 0.00 0.00 0.00 0.00 0.00 0.00 0.00 0.00 0.00 0.00 0.00 0.00 0.00 0.00 0.00 0.00 0.00 0.00 0.00 0.00 0.00 0.00
0.00 0.00 0.00 0.00 0.00 0.00 0.00 0.00 0.00 0.00 0.00 0.00 0.00 0.00 0.00 0.00 0.00 0.00 0.00 0.00 0.00 0.00 0.00 0.00 0.00 0.00 0.00 0.00 0.00 0.00 0.00 0.00 0.00 0.00 0.00 0.00 0.00 0.00 0.00 0.00 0.00 0.00 0.00 0.00 0.00
0.00 0.00 0.00 0.00 0.00 0.00 0.00 0.00 0.00 0.00 0.00 0.00 0.00 0.00 0.00 0.00 0.00 0.00 0.00 0.00 0.00 0.00 0.00 0.00 0.00 0.00 0.00 0.00 0.00 0.00 0.00 0.00 0.00 0.00 0.00 0.00 0.00 0.00 0.00 0.00 0.00 0.00 0.00 0.00 0.00
0.00 0.00 0.00 0.00 0.00 0.00 0.00 0.00 0.00 0.00 0.00 0.00 0.00 0.00 0.00 0.00 0.00 0.00 0.00 0.00 0.00 0.00 0.00 0.00 0.00 0.00 0.00 0.00 0.00 0.00 0.00 0.00 0.00 0.00 0.00 0.00 0.00 0.00 0.00 0.00 0.00 0.00 0.00 0.00 0.00
0.00 0.00 0.00 0.00 0.00 0.00 0.00 0.00 0.00 0.00 0.00 0.00 0.00 0.00 0.00 0.00 0.00 0.00 0.00 0.00 0.00 0.00 0.00 0.00 0.00 0.00 0.00 0.00 0.00 0.00 0.00 0.00 0.00 0.00 0.00 0.00 0.00 0.00 0.00 0.00 0.00 0.00 0.00 0.00 0.00
0.00 0.00 0.00 0.00 0.00 0.00 0.00 0.00 0.00 0.00 0.00 0.00 0.00 0.00 0.00 0.00 0.00 0.00 0.00 0.00 0.00 0.00 0.00 0.00 0.00 0.00 0.00 0.00 0.00 0.00 0.00 0.00 0.00 0.00 0.00 0.00 0.00 0.00 0.00 0.00 0.00 0.00 0.00 0.00 0.00
0.00 0.00 0.00 0.00 0.00 0.00 0.00 0.00 0.00 0.00 0.00 0.00 0.00 0.00 0.00 0.00 0.00 0.00 0.00 0.00 0.00 0.00 0.00 0.00 0.00 0.00 0.00 0.00 0.00 0.00 0.00 0.00 0.00 0.00 0.00 0.00 0.00 0.00 0.00 0.00 0.00 0.00 0.00 0.00 0.00
0.00 0.00 0.00 0.00 0.00 0.00 0.00 0.00 0.00 0.00 0.00 0.00 0.00 0.00 0.00 0.00 0.00 0.00 0.00 0.00 0.00 0.00 0.00 0.00 0.00 0.00 0.00 0.00 0.00 0.00 0.00 0.00 0.00 0.00 0.00 0.00 0.00 0.00 0.00 0.00 0.00 0.00 0.00 0.00 0.00
0.00 0.00 0.00 0.00 0.00 0.00 0.00 0.00 0.00 0.00 0.00 0.00 0.00 0.00 0.00 0.00 0.00 0.00 0.00 0.00 0.00 0.00 0.00 0.00 0.00 0.00 0.00 0.00 0.00 0.00 0.00 0.00 0.00 0.00 0.00 0.00 0.00 0.00 0.00 0.00 0.00 0.00 0.00 0.00 0.00
0.00 0.00 0.00 0.00 0.00 0.00 0.00 0.00 0.00 0.00 0.00 0.00 0.00 0.00 0.00 0.00 0.00 0.00 0.00 0.00 0.00 0.00 0.00 0.00 0.00 0.00 0.00 0.00 0.00 0.00 0.00 0.00 0.00 0.00 0.00 0.00 0.00 0.00 0.00 0.00 0.00 0.00 0.00 0.00 0.00
0.00 0.00 0.00 0.00 0.00 0.00 0.00 0.00 0.00 0.00 0.00 0.00 0.00 0.00 0.00 0.00 0.00 0.00 0.00 0.00 0.00 0.00 0.00 0.00 0.00 0.00 0.00 0.00 0.00 0.00 0.00 0.00 0.00 0.00 0.00 0.00 0.00 0.00 0.00 0.00 0.00 0.00 0.00 0.00 0.00
0.00 0.00 0.00 0.00 0.00 0.00 0.00 0.00 0.00 0.00 0.00 0.00 0.00 0.00 0.00 0.00 0.00 0.00 0.00 0.00 0.00 0.00 0.00 0.00 0.00 0.00 0.00 0.00 0.00 0.00 0.00 0.00 0.00 0.00 0.00 0.00 0.00 0.00 0.00 0.00 0.00 0.00 0.00 0.00 0.00
0.00 0.00 0.00 0.00 0.00 0.00 0.00 0.00 0.00 0.00 0.00 0.00 0.00 0.00 0.00 0.00 0.00 0.00 0.00 0.00 0.00 0.00 0.00 0.00 0.00 0.00 0.00 0.00 0.00 0.00 0.00 0.00 0.00 0.00 0.00 0.00 0.00 0.00 0.00 0.00 0.00 0.00 0.00 0.00 0.00
0.00 0.00 0.00 0.00 0.00 0.00 0.00 0.00 0.00 0.00 0.00 0.00 0.00 0.00 0.00 0.00 0.00 0.00 0.00 0.00 0.00 0.00 0.00 0.00 0.00 0.00 0.00 0.00 0.00 0.00 0.00 0.00 0.00 0.00 0.00 0.00 0.00 0.00 0.00 0.00 0.00 0.00 0.00 0.00 0.00
0.00 0.00 0.00 0.00 0.00 0.00 0.00 0.00 0.00 0.00 0.00 0.00 0.00 0.00 0.00 0.00 0.00 0.00 0.00 0.00 0.00 0.00 0.00 0.00 0.00 0.00 0.00 0.00 0.00 0.00 0.00 0.00 0.00 0.00 0.00 0.00 0.00 0.00 0.00 0.00 0.00 0.00 0.00 0.00 0.00
0.00 0.00 0.00 0.00 0.00 0.00 0.00 0.00 0.00 0.00 0.00 0.00 0.00 0.00 0.00 0.00 0.00 0.00 0.00 0.00 0.00 0.00 0.00 0.00 0.00 0.00 0.00 0.00 0.00 0.00 0.00 0.00 0.00 0.00 0.00 0.00 0.00 0.00 0.00 0.00 0.00 0.00 0.00 0.00 0.00
0.00 0.00 0.00 0.00 0.00 0.00 0.00 0.00 0.00 0.00 0.00 0.00 0.00 0.00 0.00 0.00 0.00 0.00 0.00 0.00 0.00 0.00 0.00 0.00 0.00 0.00 0.00 0.00 0.00 0.00 0.00 0.00 0.00 0.00 0.00 0.00 0.00 0.00 0.00 0.00 0.00 0.00 0.00 0.00 0.00
0.00 0.00 0.00 0.00 0.00 0.00 0.00 0.00 0.00 0.00 0.00 0.00 0.00 0.00 0.00 0.00 0.00 0.00 0.00 0.00 0.00 0.00 0.00 0.00 0.00 0.00 0.00 0.00 0.00 0.00 0.00 0.00 0.00 0.00 0.00 0.00 0.00 0.00 0.00 0.00 0.00 0.00 0.00 0.00 0.00
0.00 0.00 0.00 0.00 0.00 0.00 0.00 0.00 0.00 0.00 0.00 0.00 0.00 0.00 0.00 0.00 0.00 0.00 0.00 0.00 0.00 0.00 0.00 0.00 0.00 0.00 0.00 0.00 0.00 0.00 0.00 0.00 0.00 0.00 0.00 0.00 0.00 0.00 0.00 0.00 0.00 0.00 0.00 0.00 0.00
0.00 0.00 0.00 0.00 0.00 0.00 0.00 0.00 0.00 0.00 0.00 0.00 0.00 0.00 0.00 0.00 0.00 0.00 0.00 0.00 0.00 0.00 0.00 0.00 0.00 0.00 0.00 0.00 0.00 0.00 0.00 0.00 0.00 0.00 0.00 0.00 0.00 0.00 0.00 0.00 0.00 0.00 0.00 0.00 0.00
0.00 0.00 0.00 0.00 0.00 0.00 0.00 0.00 0.00 0.00 0.00 0.00 0.00 0.00 0.00 0.00 0.00 0.00 0.00 0.00 0.00 0.00 0.00 0.00 0.00 0.00 0.00 0.00 0.00 0.00 0.00 0.00 0.00 0.00 0.00 0.00 0.00 0.00 0.00 0.00 0.00 0.00 0.00 0.00 0.00
MSLP
1015.91 1015.79 1015.77 1015.75 1015.66 1015.56 1015.55 1015.56 1015.61 1015.53 1015.41 1015.29 1015.09 1014.95 1014.78 1014.72 1014.57 1014.68 1015.11 1015.39 1015.25 1015.00 1015.05 1015.04 1014.83 1014.78 1014.98 1015.85 1016.28 1016.72 1018.17 1019.67 1019.87 1020.28 1019.97 1020.44 1020.80 1021.33 1021.68 1022.10 1022.64 1022.97 1023.33 1023.81 1024.16
1015.81 1015.67 1015.69 1015.66 1015.59 1015.45 1015.45 1015.36 1015.39 1015.45 1015.29 1015.16 1014.99 1014.90 1014.68 1014.62 1014.79 1015.00 1015.31 1015.04 1014.88 1014.79 1014.83 1014.92 1014.96 1014.93 1015.76 1016.44 1016.92 1017.36 1018.59 1019.14 1019.31 1019.60 1019.99 1020.51 1020.83 1021.33 1021.85 1022.29 1022.78 1023.28 1023.76 1024.06 1024.37
1015.68 1015.55 1015.59 1015.62 1015.52 1015.34 1015.36 1015.19 1015.21 1015.24 1015.18 1015.07 1014.86 1014.82 1014.64 1014.56 1015.01 1015.31 1015.12 1014.90 1014.80 1014.79 1014.68 1014.77 1014.91 1015.08 1016.15 1016.86 1017.69 1018.08 1018.88 1019.25 1019.54 1019.75 1020.02 1020.55 1021.08 1021.39 1021.81 1022.33 1022.22 1022.82 1023.48 1024.12 1024.59
1015.55 1015.51 1015.45 1015.52 1015.36 1015.25 1015.26 1015.01 1014.94 1014.98 1015.03 1014.89 1014.73 1014.69 1014.52 1014.63 1015.40 1015.23 1015.11 1014.84 1014.76 1014.90 1014.81 1014.72 1015.03 1015.68 1016.74 1017.51 1018.02 1018.61 1019.32 1019.44 1019.76 1019.94 1020.44 1020.88 1021.07 1021.47 1021.92 1021.69 1021.94 1022.42 1023.14 1024.04 1024.64
1015.45 1015.31 1015.29 1015.21 1015.13 1015.07 1015.03 1014.89 1014.70 1014.62 1014.65 1014.65 1014.49 1014.43 1014.59 1014.85 1015.25 1015.14 1014.99 1014.79 1014.73 1014.88 1014.78 1014.67 1015.22 1015.97 1017.27 1017.99 1018.42 1018.98 1019.72 1019.95 1020.11 1020.24 1020.49 1020.85 1021.33 1021.65 1021.69 1021.79 1022.21 1022.78 1023.53 1024.18 1024.79
1015.40 1015.29 1015.25 1015.04 1014.91 1014.78 1014.66 1014.59 1014.39 1014.25 1014.28 1014.31 1014.27 1014.20 1014.60 1015.14 1015.21 1015.16 1015.01 1014.81 1014.80 1014.81 1014.80 1014.79 1015.17 1015.94 1017.58 1018.63 1019.04 1019.80 1020.00 1020.29 1020.37 1020.50 1020.71 1020.94 1021.35 1021.70 1021.78 1022.23 1022.93 1023.31 1023.84 1024.47 1024.92
1015.30 1015.30 1015.17 1014.89 1014.71 1014.61 1014.38 1014.21 1014.11 1013.95 1013.88 1014.09 1014.18 1014.08 1014.45 1015.29 1015.25 1015.10 1014.87 1014.92 1014.91 1014.80 1015.00 1015.06 1015.21 1015.85 1017.71 1019.02 1019.72 1019.92 1020.23 1020.39 1020.58 1020.69 1021.00 1021.06 1021.57 1021.56 1022.00 1022.59 1023.31 1023.87 1024.30 1024.65 1024.93
1015.19 1015.24 1015.08 1014.79 1014.58 1014.47 1014.25 1014.03 1013.88 1013.72 1013.73 1013.92 1014.16 1014.23 1014.80 1014.99 1015.09 1015.13 1015.08 1014.95 1014.89 1014.80 1015.10 1015.44 1015.47 1016.64 1018.06 1019.24 1019.86 1020.27 1020.46 1020.84 1020.76 1020.86 1021.23 1021.43 1021.30 1021.68 1022.41 1022.92 1023.60 1024.04 1024.36 1024.60 1024.87
1015.30 1015.19 1014.97 1014.82 1014.52 1014.28 1014.10 1013.94 1013.70 1013.68 1013.74 1013.90 1014.23 1014.28 1015.02 1014.91 1015.16 1015.43 1015.37 1015.17 1015.06 1015.20 1015.42 1015.62 1016.17 1017.91 1018.80 1019.27 1020.37 1020.76 1020.69 1020.91 1020.81 1021.07 1021.43 1021.86 1021.64 1021.82 1022.50 1023.12 1023.52 1023.72 1024.00 1024.35 1024.71
1015.41 1015.22 1015.00 1014.87 1014.45 1014.21 1013.93 1013.87 1013.68 1013.72 1013.91 1014.06 1014.22 1014.74 1015.31 1015.24 1015.35 1015.43 1015.35 1015.27 1015.41 1015.45 1015.85 1016.32 1017.36 1018.37 1019.10 1019.24 1019.90 1020.29 1020.53 1020.62 1020.98 1021.40 1021.82 1022.26 1021.51 1021.85 1022.30 1022.79 1022.77 1023.00 1023.39 1023.82 1024.11
1015.63 1015.37 1015.07 1014.84 1014.51 1014.24 1014.00 1014.07 1014.54 1014.48 1014.22 1014.51 1014.78 1014.95 1015.27 1015.41 1015.42 1015.61 1015.62 1015.53 1015.53 1016.05 1016.73 1017.26 1018.06 1018.36 1018.40 1018.70 1018.66 1019.11 1019.86 1020.33 1020.87 1021.56 1021.99 1022.07 1021.74 1020.84 1021.36 1021.79 1021.69 1021.69 1022.01 1022.48 1023.45
1015.57 1015.46 1014.96 1014.57 1014.46 1014.10 1014.21 1014.47 1014.73 1014.86 1014.90 1014.93 1014.89 1015.07 1015.25 1015.44 1015.73 1015.81 1015.71 1015.91 1016.14 1017.06 1017.47 1018.19 1018.21 1018.34 1018.39 1018.70 1018.83 1019.02 1019.53 1020.31 1020.97 1021.64 1022.14 1021.95 1021.02 1020.16 1019.80 1019.43 1018.97 1019.23 1020.29 1021.60 1023.07
1015.66 1015.35 1015.20 1014.85 1014.59 1014.14 1014.46 1014.91 1015.00 1014.71 1014.89 1015.33 1015.22 1015.24 1015.41 1015.58 1015.92 1016.07 1015.94 1016.02 1016.80 1017.61 1017.99 1018.48 1018.75 1018.48 1018.56 1019.02 1019.04 1019.23 1019.60 1020.14 1020.89 1021.68 1022.27 1022.20 1020.83 1019.52 1018.04 1017.90 1017.96 1019.17 1020.01 1020.99 1022.02
1015.74 1015.60 1015.52 1014.99 1014.89 1014.64 1014.78 1015.16 1014.86 1014.57 1015.18 1015.39 1015.37 1015.35 1015.46 1015.53 1016.25 1016.28 1016.21 1016.20 1017.20 1018.01 1018.45 1018.96 1019.04 1019.02 1019.06 1019.27 1019.28 1019.70 1019.44 1020.03 1021.00 1021.90 1022.83 1022.59 1021.42 1019.36 1017.72 1017.54 1018.03 1018.41 1019.19 1020.02 1021.14
1015.76 1015.64 1015.44 1015.01 1014.68 1014.88 1015.14 1014.93 1014.68 1014.54 1015.72 1015.75 1015.61 1015.56 1015.59 1015.96 1016.55 1016.45 1016.48 1016.28 1017.28 1018.19 1018.89 1019.53 1019.60 1019.64 1019.60 1019.39 1019.35 1019.89 1020.07 1020.84 1021.59 1022.54 1023.06 1023.10 1022.50 1018.95 1018.08 1017.66 1018.24 1018.60 1019.01 1019.84 1020.73
1016.00 1015.81 1015.44 1015.08 1015.09 1015.13 1015.01 1014.84 1014.85 1015.97 1015.87 1016.00 1015.92 1015.76 1016.12 1016.32 1016.62 1016.72 1016.70 1016.83 1017.69 1018.48 1019.34 1020.08 1020.10 1020.17 1020.18 1020.23 1020.04 1020.31 1020.81 1021.92 1022.73 1023.27 1023.61 1023.09 1022.67 1019.62 1018.44 1018.51 1018.72 1019.11 1019.81 1020.35 1021.17
1015.96 1015.73 1015.58 1015.25 1015.43 1015.08 1015.07 1015.15 1015.99 1015.89 1016.01 1016.29 1016.27 1016.32 1016.37 1016.80 1017.10 1017.01 1017.15 1017.51 1017.89 1019.13 1020.00 1020.53 1020.75 1020.79 1020.59 1020.70 1020.75 1020.68 1021.22 1022.66 1023.76 1024.14 1023.93 1023.23 1022.90 1019.24 1018.54 1018.49 1019.15 1019.88 1020.20 1020.86 1021.62
1015.61 1015.43 1015.32 1014.97 1015.02 1015.14 1015.33 1015.62 1015.76 1015.20 1015.45 1015.90 1016.18 1016.42 1016.90 1016.93 1017.44 1017.41 1017.53 1017.81 1017.98 1018.41 1019.84 1020.40 1021.46 1021.34 1021.30 1020.95 1020.65 1021.09 1021.13 1021.78 1023.04 1024.37 1024.09 1023.55 1021.85 1018.78 1018.43 1018.65 1019.24 1020.03 1020.70 1021.35 1022.15
1015.50 1015.69 1015.52 1015.01 1015.10 1015.29 1015.57 1015.49 1014.72 1014.92 1014.94 1015.49 1016.45 1016.65 1017.24 1017.30 1017.31 1017.78 1017.91 1017.76 1017.53 1017.90 1018.57 1019.86 1021.26 1021.92 1021.88 1021.64 1021.54 1021.58 1021.53 1021.64 1022.91 1024.73 1024.11 1022.40 1020.40 1018.47 1018.43 1018.84 1019.38 1020.20 1021.04 1021.61 1022.01
1016.30 1015.92 1015.61 1015.35 1015.11 1015.22 1015.53 1015.12 1014.91 1014.62 1014.59 1014.87 1015.42 1016.09 1016.95 1017.25 1017.49 1017.77 1018.02 1017.43 1017.39 1017.49 1017.63 1018.83 1020.98 1022.33 1022.28 1022.13 1021.85 1021.59 1021.55 1021.97 1022.56 1023.77 1023.64 1022.29 1020.81 1018.96 1018.58 1018.82 1019.56 1020.26 1020.98 1021.66 1022.08
1016.20 1015.74 1015.32 1015.27 1015.15 1015.37 1015.56 1015.32 1015.07 1014.68 1014.42 1014.81 1015.15 1015.81 1016.57 1016.98 1017.46 1017.54 1017.69 1017.80 1017.46 1017.64 1017.75 1018.36 1019.47 1022.60 1022.67 1022.42 1022.18 1022.20 1021.80 1022.02 1022.18 1022.50 1022.54 1022.28 1020.13 1018.32 1018.38 1018.80 1019.41 1020.07 1020.43 1021.04 1021.49
1016.25 1016.25 1015.16 1015.15 1015.49 1015.46 1015.66 1015.19 1015.06 1014.93 1014.74 1014.67 1014.75 1015.33 1016.05 1016.72 1017.20 1017.55 1017.51 1017.58 1017.46 1017.39 1018.02 1018.23 1019.55 1021.56 1022.08 1022.27 1022.30 1022.16 1021.80 1021.60 1021.97 1022.69 1022.69 1022.01 1019.59 1018.03 1018.22 1018.72 1019.24 1019.68 1020.11 1020.52 1021.06
1016.66 1016.52 1015.31 1015.10 1015.65 1015.84 1015.88 1015.37 1015.25 1015.27 1014.85 1014.85 1015.02 1015.18 1015.73 1016.38 1017.17 1017.46 1017.70 1018.11 1017.91 1017.60 1017.60 1018.15 1019.59 1021.35 1022.14 1022.59 1022.39 1022.17 1021.81 1021.63 1021.72 1021.96 1022.18 1021.68 1019.80 1018.37 1018.54 1018.69 1018.89 1019.48 1019.79 1020.24 1020.74
1017.35 1017.36 1016.66 1015.78 1016.10 1015.86 1015.89 1015.99 1015.52 1015.25 1015.01 1015.02 1015.22 1015.49 1015.91 1016.49 1017.04 1017.64 1018.10 1018.46 1018.35 1018.19 1018.09 1018.00 1019.37 1020.27 1020.90 1021.00 1021.30 1021.89 1021.68 1021.85 1021.67 1022.15 1021.68 1020.76 1019.53 1018.47 1018.18 1018.65 1018.65 1019.00 1019.27 1019.60 1020.05
1018.15 1017.90 1017.71 1016.74 1016.35 1016.28 1016.04 1016.29 1015.85 1015.80 1015.59 1015.36 1015.82 1015.81 1015.92 1016.81 1017.30 1017.86 1018.28 1018.77 1018.69 1018.71 1018.79 1018.88 1019.99 1020.68 1021.05 1021.26 1021.45 1021.59 1021.42 1021.60 1021.84 1021.33 1021.30 1020.49 1019.80 1018.62 1018.26 1018.45 1018.72 1019.05 1019.19 1019.33 1019.60
1018.73 1018.55 1018.36 1017.95 1017.28 1016.67 1016.74 1016.91 1016.44 1016.01 1016.04 1016.07 1016.11 1016.17 1016.24 1016.95 1017.22 1017.47 1017.90 1018.52 1018.50 1019.22 1019.50 1019.75 1020.81 1021.37 1022.02 1022.00 1021.79 1021.65 1021.38 1021.47 1021.41 1021.08 1020.69 1020.28 1019.34 1018.16 1017.81 1018.31 1018.71 1019.07 1019.16 1019.22 1019.18
1018.97 1019.07 1019.52 1019.54 1018.33 1017.68 1017.24 1017.35 1017.06 1016.63 1016.90 1016.68 1016.59 1016.74 1017.06 1017.61 1017.90 1017.87 1017.79 1018.08 1018.50 1019.03 1019.74 1020.23 1021.22 1022.29 1023.20 1023.00 1022.35 1021.29 1019.99 1020.18 1020.20 1019.79 1019.43 1019.44 1018.10 1017.77 1018.19 1018.46 1018.65 1018.88 1019.02 1019.03 1018.83
Thickness
5634 5639 5642 5645 5649 5652 5655 5657 5658 5661 5663 5666 5669 5672 5675 5677 5679 5679 5675 5675 5677 5679 5679 5679 5681 5681 5680 5671 5670 5667 5646 5634 5640 5634 5650 5641 5645 5640 5640 5641 5640 5639 5641 5637 5634
5629 5634 5637 5640 5644 5648 5651 5654 5656 5657 5661 5664 5667 5670 5673 5675 5675 5673 5673 5676 5678 5680 5681 5680 5677 5679 5667 5666 5662 5658 5646 5647 5647 5646 5648 5642 5648 5643 5645 5642 5642 5640 5635 5634 5634
5624 5629 5632 5635 5639 5643 5646 5650 5652 5654 5657 5661 5664 5667 5670 5673 5672 5669 5672 5675 5677 5679 5681 5680 5678 5677 5665 5660 5653 5653 5648 5647 5647 5648 5647 5643 5645 5644 5644 5645 5650 5648 5641 5635 5632
5618 5623 5626 5629 5634 5638 5641 5646 5650 5652 5654 5657 5661 5664 5668 5670 5664 5668 5670 5673 5675 5676 5678 5679 5675 5668 5657 5656 5652 5649 5644 5647 5646 5645 5644 5643 5642 5646 5644 5656 5652 5650 5643 5636 5632
5611 5617 5621 5625 5630 5634 5638 5642 5647 5650 5653 5655 5659 5662 5664 5664 5663 5665 5669 5672 5673 5674 5676 5677 5673 5665 5654 5649 5650 5648 5641 5640 5641 5643 5643 5642 5645 5647 5647 5648 5644 5641 5638 5634 5630
5604 5610 5615 5620 5625 5629 5635 5639 5644 5648 5651 5653 5656 5660 5660 5657 5659 5662 5666 5668 5670 5671 5672 5675 5672 5667 5649 5642 5647 5636 5636 5637 5640 5642 5642 5647 5646 5648 5649 5635 5635 5637 5635 5630 5628
5597 5602 5608 5614 5619 5624 5630 5635 5640 5645 5648 5650 5651 5656 5655 5651 5654 5658 5662 5663 5665 5668 5667 5669 5669 5669 5649 5640 5634 5636 5639 5638 5637 5639 5639 5643 5643 5643 5642 5635 5633 5632 5628 5626 5625
5588 5593 5599 5606 5612 5617 5624 5629 5634 5639 5643 5644 5645 5649 5644 5648 5651 5653 5656 5659 5661 5664 5663 5662 5664 5654 5646 5635 5630 5631 5628 5634 5633 5635 5634 5640 5643 5642 5626 5630 5629 5626 5623 5623 5622
5577 5584 5591 5597 5604 5610 5617 5622 5628 5632 5635 5637 5639 5643 5637 5643 5644 5645 5649 5652 5655 5656 5656 5657 5654 5640 5638 5633 5623 5616 5626 5623 5632 5627 5630 5632 5639 5639 5620 5622 5627 5624 5623 5621 5618
5565 5573 5580 5587 5595 5601 5608 5613 5619 5623 5626 5629 5631 5632 5630 5634 5636 5639 5642 5646 5646 5648 5648 5645 5634 5627 5621 5627 5621 5624 5621 5620 5625 5625 5622 5622 5628 5630 5625 5620 5630 5627 5622 5619 5618
5553 5562 5570 5577 5585 5592 5600 5602 5605 5610 5614 5618 5618 5619 5621 5625 5629 5630 5632 5638 5640 5634 5630 5629 5626 5624 5628 5627 5632 5624 5625 5629 5622 5613 5618 5613 5619 5638 5631 5623 5631 5633 5632 5626 5617
5541 5551 5561 5569 5575 5583 5587 5593 5595 5601 5602 5605 5607 5611 5613 5616 5618 5621 5625 5626 5628 5617 5619 5611 5618 5624 5623 5622 5627 5626 5626 5620 5613 5605 5607 5607 5627 5634 5636 5643 5650 5656 5644 5630 5610
5531 5539 5547 5556 5564 5573 5576 5578 5582 5589 5594 5593 5597 5600 5603 5606 5606 5611 5617 5618 5612 5609 5612 5607 5615 5614 5618 5613 5618 5620 5616 5614 5617 5602 5594 5596 5623 5638 5654 5643 5650 5643 5637 5625 5617
5520 5525 5532 5545 5553 5559 5565 5566 5573 5580 5565 5587 5586 5590 5593 5596 5595 5599 5604 5610 5603 5598 5602 5604 5603 5607 5610 5608 5611 5610 5614 5611 5602 5601 5598 5588 5600 5631 5654 5653 5644 5642 5628 5623 5615
5509 5514 5520 5532 5544 5548 5552 5558 5565 5572 5548 5573 5573 5581 5584 5586 5586 5591 5594 5603 5593 5591 5595 5592 5596 5599 5603 5608 5605 5607 5604 5599 5594 5580 5579 5584 5573 5624 5631 5644 5639 5633 5628 5613 5609
5496 5502 5512 5521 5528 5533 5539 5548 5555 5545 5551 5544 5561 5568 5572 5577 5578 5582 5586 5587 5582 5581 5571 5574 5576 5580 5586 5582 5591 5587 5589 5573 5558 5564 5560 5580 5575 5612 5627 5632 5627 5625 5614 5605 5597
5483 5492 5500 5508 5517 5522 5526 5535 5531 5541 5530 5544 5550 5555 5565 5562 5565 5573 5576 5575 5569 5563 5556 5568 5570 5569 5574 5580 5584 5588 5586 5562 5561 5546 5573 5558 5555 5614 5617 5620 5618 5606 5604 5594 5588
5473 5481 5489 5498 5504 5508 5513 5517 5522 5510 5518 5540 5542 5546 5554 5557 5555 5559 5561 5556 5569 5568 5541 5557 5565 5562 5560 5573 5581 5577 5585 5575 5565 5560 5570 5544 5566 5611 5610 5604 5598 5591 5585 5581 5577
5462 5469 5477 5485 5491 5495 5500 5513 5517 5517 5532 5534 5537 5537 5541 5546 5549 5553 5550 5558 5564 5560 5574 5549 5550 5539 5545 5551 5560 5570 5572 5572 5535 5465 5535 5569 5586 5607 5605 5597 5593 5586 5579 5575 5573
5444 5455 5466 5470 5477 5484 5484 5514 5505 5522 5524 5533 5547 5537 5525 5533 5539 5540 5537 5556 5563 5557 5567 5561 5539 5525 5537 5541 5548 5557 5558 5558 5535 5532 5531 5560 5565 5589 5602 5601 5587 5583 5580 5568 5567
5435 5444 5456 5461 5466 5466 5488 5494 5495 5511 5521 5525 5529 5522 5530 5527 5528 5521 5539 5546 5553 5547 5557 5555 5555 5519 5525 5531 5537 5540 5546 5543 5550 5549 5546 5541 5572 5577 5590 5593 5589 5575 5576 5568 5565
5424 5419 5445 5449 5455 5453 5467 5461 5490 5497 5505 5515 5521 5521 5520 5515 5518 5524 5531 5539 5533 5543 5548 5551 5532 5518 5526 5520 5521 5528 5544 5546 5548 5544 5524 5534 5564 5577 5577 5576 5573 5572 5573 5563 5558
5409 5412 5432 5439 5452 5458 5450 5464 5476 5483 5492 5500 5508 5516 5512 5510 5509 5519 5519 5512 5520 5535 5540 5539 5519 5500 5520 5517 5512 5521 5528 5535 5530 5529 5521 5531 5559 5565 5560 5562 5560 5563 5561 5557 5551
5392 5385 5407 5422 5426 5439 5451 5447 5458 5471 5481 5489 5492 5498 5499 5492 5497 5497 5499 5499 5505 5516 5524 5533 5508 5526 5541 5540 5516 5513 5516 5516 5531 5508 5525 5532 5558 5566 5566 5558 5556 5555 5556 5552 5549
5369 5379 5386 5416 5421 5421 5440 5439 5450 5454 5463 5472 5471 5487 5492 5485 5484 5483 5484 5486 5493 5497 5500 5508 5495 5505 5509 5507 5506 5519 5521 5505 5508 5525 5525 5541 5536 5554 5549 5551 5545 5546 5546 5545 5544
5337 5364 5368 5374 5400 5419 5419 5416 5426 5446 5449 5452 5449 5466 5475 5471 5482 5483 5480 5477 5481 5480 5481 5480 5486 5480 5466 5484 5488 5495 5498 5496 5500 5510 5504 5512 5524 5537 5543 5536 5535 5533 5535 5538 5540
5335 5343 5341 5347 5377 5396 5397 5400 5414 5425 5426 5438 5445 5446 5450 5449 5454 5462 5466 5467 5472 5469 5473 5480 5452 5459 5456 5445 5472 5480 5490 5496 5500 5500 5513 5505 5534 5531 5529 5524 5525 5527 5527 5528 5533